Time,TemperatureF,DewpointF,PressureIn,WindDirection,WindDirectionDegrees,WindSpeedMPH,WindSpeedGustMPH,Humidity,HourlyPrecipIn,Conditions,Clouds,dailyrainin,SolarRadiationWatts/m^2,SoftwareType,DateUTC
2015-07-04 00:01:00,69.4,67.5,27.94,SW,222,0.0,0.0,93,0.00,,,0.00,0.00,Weather logger V1.0,2015-07-04 04:01:00,
2015-07-04 00:06:00,69.4,67.5,27.95,SW,215,0.0,0.0,93,0.00,,,0.00,0.00,Weather logger V1.0,2015-07-04 04:06:00,
2015-07-04 00:11:00,69.4,67.6,27.95,SW,227,0.0,0.0,94,0.00,,,0.00,0.00,Weather logger V1.0,2015-07-04 04:11:00,
2015-07-04 00:16:00,69.4,67.6,27.94,SW,233,0.0,0.0,94,0.00,,,0.00,0.00,Weather logger V1.0,2015-07-04 04:16:00,
2015-07-04 00:21:00,69.4,67.6,27.94,WSW,243,0.2,2.5,94,0.00,,,0.00,0.00,Weather logger V1.0,2015-07-04 04:21:00,
2015-07-04 00:26:00,69.3,67.5,27.94,SW,227,0.0,0.0,94,0.00,,,0.00,0.00,Weather logger V1.0,2015-07-04 04:26:00,
2015-07-04 00:31:00,69.3,67.5,27.94,SW,227,0.0,0.0,94,0.00,,,0.00,0.00,Weather logger V1.0,2015-07-04 04:31:00,
2015-07-04 00:36:00,69.3,67.5,27.94,SW,219,0.0,0.0,94,0.00,,,0.00,0.00,Weather logger V1.0,2015-07-04 04:36:00,
2015-07-04 00:41:00,69.3,67.5,27.94,SW,227,0.0,0.0,94,0.07,,,0.01,0.00,Weather logger V1.0,2015-07-04 04:41:00,
2015-07-04 00:46:00,69.1,67.6,27.94,SW,227,0.0,0.0,95,0.28,,,0.05,0.00,Weather logger V1.0,2015-07-04 04:46:00,
2015-07-04 00:51:00,69.1,67.6,27.94,SW,221,0.0,0.0,95,0.21,,,0.05,0.00,Weather logger V1.0,2015-07-04 04:51:00,
2015-07-04 00:56:00,68.9,67.8,27.94,SW,227,0.0,0.0,96,0.00,,,0.05,0.00,Weather logger V1.0,2015-07-04 04:56:00,
2015-07-04 01:01:00,68.7,67.6,27.94,SW,218,0.0,0.0,96,0.07,,,0.06,0.00,Weather logger V1.0,2015-07-04 05:01:00,
2015-07-04 01:07:00,68.7,67.6,27.94,WSW,238,0.0,0.0,96,0.00,,,0.06,0.00,Weather logger V1.0,2015-07-04 05:07:00,
2015-07-04 01:12:00,68.5,67.6,27.94,SW,222,0.0,0.0,97,0.00,,,0.06,0.00,Weather logger V1.0,2015-07-04 05:12:00,
2015-07-04 01:17:00,68.5,67.6,27.93,SW,220,0.0,0.0,97,0.00,,,0.06,0.00,Weather logger V1.0,2015-07-04 05:17:00,
2015-07-04 01:22:00,68.4,67.5,27.94,SW,229,0.0,0.0,97,0.00,,,0.06,0.00,Weather logger V1.0,2015-07-04 05:22:00,
2015-07-04 01:27:00,68.4,67.5,27.93,SW,231,0.0,0.0,97,0.00,,,0.06,0.00,Weather logger V1.0,2015-07-04 05:27:00,
2015-07-04 01:32:00,68.4,67.5,27.93,SW,219,0.0,0.0,97,0.00,,,0.06,0.00,Weather logger V1.0,2015-07-04 05:32:00,
2015-07-04 01:37:00,68.4,67.8,27.93,SW,214,0.0,0.0,98,0.00,,,0.06,0.00,Weather logger V1.0,2015-07-04 05:37:00,
2015-07-04 01:42:00,68.2,67.6,27.92,SW,221,0.0,0.0,98,0.00,,,0.06,0.00,Weather logger V1.0,2015-07-04 05:42:00,
2015-07-04 01:47:00,68.2,67.6,27.92,WSW,239,0.0,0.0,98,0.00,,,0.06,0.00,Weather logger V1.0,2015-07-04 05:47:00,
2015-07-04 01:52:00,68.2,67.6,27.92,SW,228,0.0,0.0,98,0.00,,,0.06,0.00,Weather logger V1.0,2015-07-04 05:52:00,
2015-07-04 01:57:00,68.2,67.6,27.92,SW,224,0.0,0.0,98,0.00,,,0.06,0.00,Weather logger V1.0,2015-07-04 05:57:00,
2015-07-04 02:02:00,68.2,67.6,27.91,South,191,1.3,2.5,98,0.00,,,0.06,0.00,Weather logger V1.0,2015-07-04 06:02:00,
2015-07-04 02:07:00,68.0,67.5,27.91,SW,221,0.0,0.0,98,0.00,,,0.06,0.00,Weather logger V1.0,2015-07-04 06:07:00,
2015-07-04 02:18:00,68.0,67.5,27.91,SW,228,0.0,0.0,98,0.00,,,0.06,0.00,Weather logger V1.0,2015-07-04 06:18:00,
2015-07-04 02:23:00,68.0,67.5,27.91,SW,218,0.0,0.0,98,0.00,,,0.06,0.00,Weather logger V1.0,2015-07-04 06:23:00,
2015-07-04 02:28:00,67.8,67.6,27.91,SW,228,0.0,0.0,99,0.00,,,0.06,0.00,Weather logger V1.0,2015-07-04 06:28:00,
2015-07-04 02:33:00,67.8,67.6,27.91,SW,223,0.0,0.0,99,0.00,,,0.06,0.00,Weather logger V1.0,2015-07-04 06:33:00,
2015-07-04 02:38:00,67.8,67.6,27.92,SW,222,0.0,0.0,99,0.00,,,0.06,0.00,Weather logger V1.0,2015-07-04 06:38:00,
2015-07-04 02:43:00,67.8,67.6,27.91,SW,221,0.0,0.0,99,0.14,,,0.08,0.00,Weather logger V1.0,2015-07-04 06:43:00,
2015-07-04 02:48:00,67.8,67.6,27.91,SW,219,0.0,0.0,99,0.14,,,0.08,0.00,Weather logger V1.0,2015-07-04 06:48:00,
2015-07-04 02:53:00,67.8,67.3,27.91,SW,231,0.0,0.0,98,0.00,,,0.08,0.00,Weather logger V1.0,2015-07-04 06:53:00,
2015-07-04 02:58:00,67.8,67.3,27.91,SW,220,0.0,0.0,98,0.00,,,0.08,0.00,Weather logger V1.0,2015-07-04 06:58:00,
2015-07-04 03:03:00,67.8,67.3,27.91,SW,226,0.0,0.0,98,0.00,,,0.08,0.00,Weather logger V1.0,2015-07-04 07:03:00,
2015-07-04 03:08:00,67.8,67.6,27.91,SW,220,0.0,0.0,99,0.00,,,0.08,0.00,Weather logger V1.0,2015-07-04 07:08:00,
2015-07-04 03:13:00,67.8,67.6,27.91,WSW,251,0.0,0.0,99,0.00,,,0.08,0.00,Weather logger V1.0,2015-07-04 07:13:00,
2015-07-04 03:18:00,67.8,67.6,27.91,WSW,241,1.1,2.5,99,0.00,,,0.08,0.00,Weather logger V1.0,2015-07-04 07:18:00,
2015-07-04 03:23:00,67.8,67.6,27.91,SW,227,0.2,2.5,99,0.00,,,0.08,0.00,Weather logger V1.0,2015-07-04 07:23:00,
2015-07-04 03:28:00,67.6,67.1,27.91,SW,219,0.2,2.5,98,0.00,,,0.08,0.00,Weather logger V1.0,2015-07-04 07:28:00,
2015-07-04 03:34:00,67.6,67.1,27.91,WSW,250,2.5,4.9,98,0.00,,,0.08,0.00,Weather logger V1.0,2015-07-04 07:34:00,
2015-07-04 03:39:00,67.5,66.9,27.92,SW,224,0.2,2.5,98,0.00,,,0.08,0.00,Weather logger V1.0,2015-07-04 07:39:00,
2015-07-04 03:44:00,67.5,66.9,27.92,SW,228,0.0,0.0,98,0.00,,,0.08,0.00,Weather logger V1.0,2015-07-04 07:44:00,
2015-07-04 03:49:00,67.5,66.9,27.92,SW,218,0.0,0.0,98,0.00,,,0.08,0.00,Weather logger V1.0,2015-07-04 07:49:00,
2015-07-04 03:54:00,67.5,66.6,27.92,SW,231,0.0,0.0,97,0.00,,,0.08,0.00,Weather logger V1.0,2015-07-04 07:54:00,
2015-07-04 03:59:00,67.5,66.9,27.92,WSW,252,1.3,2.5,98,0.00,,,0.08,0.00,Weather logger V1.0,2015-07-04 07:59:00,
2015-07-04 04:04:00,67.5,66.9,27.93,SW,216,1.1,2.5,98,0.00,,,0.08,0.00,Weather logger V1.0,2015-07-04 08:04:00,
2015-07-04 04:09:00,67.5,66.9,27.93,SW,215,0.0,0.0,98,0.00,,,0.08,0.00,Weather logger V1.0,2015-07-04 08:09:00,
2015-07-04 04:14:00,67.6,67.1,27.93,SW,232,0.0,0.0,98,0.00,,,0.08,0.00,Weather logger V1.0,2015-07-04 08:14:00,
2015-07-04 04:19:00,67.6,67.1,27.93,SW,235,0.0,0.0,98,0.00,,,0.08,0.00,Weather logger V1.0,2015-07-04 08:19:00,
2015-07-04 04:24:00,67.6,67.1,27.93,SW,220,0.0,0.0,98,0.00,,,0.08,0.00,Weather logger V1.0,2015-07-04 08:24:00,
2015-07-04 04:29:00,67.8,67.3,27.94,SW,218,0.0,0.0,98,0.00,,,0.08,0.00,Weather logger V1.0,2015-07-04 08:29:00,
2015-07-04 04:34:00,67.8,67.3,27.94,SW,231,0.0,0.0,98,0.00,,,0.08,0.00,Weather logger V1.0,2015-07-04 08:34:00,
2015-07-04 04:39:00,67.8,67.3,27.94,SW,223,0.0,0.0,98,0.00,,,0.08,0.00,Weather logger V1.0,2015-07-04 08:39:00,
2015-07-04 04:44:00,67.6,67.1,27.94,SSW,213,0.0,0.0,98,0.00,,,0.08,0.00,Weather logger V1.0,2015-07-04 08:44:00,
2015-07-04 04:50:00,67.6,67.1,27.94,SW,217,0.0,0.0,98,0.00,,,0.08,0.00,Weather logger V1.0,2015-07-04 08:50:00,
2015-07-04 04:55:00,67.6,67.1,27.94,SW,224,0.0,0.0,98,0.00,,,0.08,0.00,Weather logger V1.0,2015-07-04 08:55:00,
2015-07-04 05:00:00,67.6,67.1,27.93,SW,224,0.0,0.0,98,0.07,,,0.09,0.00,Weather logger V1.0,2015-07-04 09:00:00,
2015-07-04 05:05:00,67.6,67.1,27.93,SW,229,0.0,0.0,98,0.07,,,0.09,0.00,Weather logger V1.0,2015-07-04 09:05:00,
2015-07-04 05:10:00,67.6,67.5,27.93,SW,224,0.0,0.0,99,0.00,,,0.09,0.00,Weather logger V1.0,2015-07-04 09:10:00,
2015-07-04 05:15:00,67.6,67.5,27.93,SW,228,0.0,0.0,99,0.00,,,0.09,0.00,Weather logger V1.0,2015-07-04 09:15:00,
2015-07-04 05:20:00,67.6,67.5,27.93,SW,231,0.0,0.0,99,0.00,,,0.09,0.00,Weather logger V1.0,2015-07-04 09:20:00,
2015-07-04 05:25:00,67.6,67.5,27.93,SW,223,0.0,0.0,99,0.00,,,0.09,0.00,Weather logger V1.0,2015-07-04 09:25:00,
2015-07-04 05:30:00,67.6,67.5,27.93,SW,231,0.9,2.5,99,0.00,,,0.09,0.00,Weather logger V1.0,2015-07-04 09:30:00,
2015-07-04 05:35:00,67.6,67.5,27.93,SW,219,0.2,2.5,99,0.00,,,0.09,0.00,Weather logger V1.0,2015-07-04 09:35:00,
2015-07-04 05:40:00,67.8,67.3,27.93,SW,220,0.0,0.0,98,0.00,,,0.09,0.00,Weather logger V1.0,2015-07-04 09:40:00,
2015-07-04 05:45:00,67.8,67.3,27.92,SW,229,0.0,0.0,98,0.00,,,0.09,0.00,Weather logger V1.0,2015-07-04 09:45:00,
2015-07-04 05:50:00,67.8,67.3,27.92,SW,221,0.0,0.0,98,0.00,,,0.09,0.00,Weather logger V1.0,2015-07-04 09:50:00,
2015-07-04 05:55:00,67.8,67.3,27.92,SW,224,0.0,0.0,98,0.00,,,0.09,0.00,Weather logger V1.0,2015-07-04 09:55:00,
2015-07-04 06:00:00,67.6,67.1,27.92,West,259,0.4,2.5,98,0.00,,,0.09,0.00,Weather logger V1.0,2015-07-04 10:00:00,
2015-07-04 06:06:00,67.6,66.7,27.93,SW,227,0.0,0.0,97,0.00,,,0.09,0.00,Weather logger V1.0,2015-07-04 10:06:00,
2015-07-04 06:11:00,67.5,66.6,27.93,SSW,208,0.0,0.0,97,0.07,,,0.11,0.00,Weather logger V1.0,2015-07-04 10:11:00,
2015-07-04 06:16:00,67.5,66.6,27.93,SW,229,0.0,0.0,97,0.21,,,0.13,0.00,Weather logger V1.0,2015-07-04 10:16:00,
2015-07-04 06:21:00,67.3,66.4,27.92,SW,228,0.0,0.0,97,0.28,,,0.15,0.00,Weather logger V1.0,2015-07-04 10:21:00,
2015-07-04 06:26:00,67.1,66.2,27.93,SW,229,0.0,0.0,97,0.21,,,0.17,0.00,Weather logger V1.0,2015-07-04 10:26:00,
2015-07-04 06:31:00,66.9,66.0,27.93,SSW,213,0.0,0.0,97,0.14,,,0.18,0.00,Weather logger V1.0,2015-07-04 10:31:00,
2015-07-04 06:36:00,66.9,66.0,27.93,SW,224,0.0,0.0,97,0.07,,,0.18,0.00,Weather logger V1.0,2015-07-04 10:36:00,
2015-07-04 06:41:00,66.7,66.2,27.93,SW,220,0.0,0.0,98,0.07,,,0.19,0.00,Weather logger V1.0,2015-07-04 10:41:00,
2015-07-04 06:46:00,66.6,66.0,27.94,SW,220,0.0,0.0,98,0.07,,,0.19,0.00,Weather logger V1.0,2015-07-04 10:46:00,
2015-07-04 06:51:00,66.6,66.0,27.93,SW,231,0.4,2.5,98,0.00,,,0.19,0.00,Weather logger V1.0,2015-07-04 10:51:00,
2015-07-04 06:56:00,66.6,66.0,27.93,WSW,247,0.4,2.5,98,0.00,,,0.19,1.03,Weather logger V1.0,2015-07-04 10:56:00,
2015-07-04 07:01:00,66.6,66.0,27.93,SW,231,0.0,0.0,98,0.07,,,0.20,4.54,Weather logger V1.0,2015-07-04 11:01:00,
2015-07-04 07:06:00,66.6,66.4,27.94,SW,232,0.0,0.0,99,0.07,,,0.20,4.72,Weather logger V1.0,2015-07-04 11:06:00,
2015-07-04 07:11:00,66.6,66.4,27.95,SW,226,0.2,2.5,99,0.07,,,0.21,4.03,Weather logger V1.0,2015-07-04 11:11:00,
2015-07-04 07:16:00,66.6,66.4,27.94,SW,226,0.0,0.0,99,0.07,,,0.21,10.02,Weather logger V1.0,2015-07-04 11:16:00,
2015-07-04 07:22:00,66.6,66.4,27.95,SW,230,0.0,0.0,99,0.07,,,0.22,10.34,Weather logger V1.0,2015-07-04 11:22:00,
2015-07-04 07:27:00,66.6,66.4,27.95,SSE,149,2.5,2.5,99,0.07,,,0.22,30.66,Weather logger V1.0,2015-07-04 11:27:00,
2015-07-04 07:32:00,66.6,66.4,27.95,SSW,194,0.2,2.5,99,0.00,,,0.22,28.79,Weather logger V1.0,2015-07-04 11:32:00,
2015-07-04 07:37:00,66.6,66.4,27.95,SSW,212,3.4,4.9,99,0.00,,,0.22,26.24,Weather logger V1.0,2015-07-04 11:37:00,
2015-07-04 07:43:00,66.4,65.8,27.96,SSE,152,2.9,4.9,98,0.07,,,0.24,19.29,Weather logger V1.0,2015-07-04 11:43:00,
2015-07-04 07:48:00,66.4,65.8,27.95,SW,222,0.4,2.5,98,0.00,,,0.24,16.01,Weather logger V1.0,2015-07-04 11:48:00,
2015-07-04 07:53:00,66.4,65.8,27.95,SW,234,0.0,0.0,98,0.00,,,0.24,23.87,Weather logger V1.0,2015-07-04 11:53:00,
2015-07-04 07:58:00,66.4,65.8,27.95,WSW,244,1.3,2.5,98,0.07,,,0.25,36.46,Weather logger V1.0,2015-07-04 11:58:00,
2015-07-04 08:03:00,66.2,65.7,27.95,SSW,204,0.4,2.5,98,0.07,,,0.25,64.97,Weather logger V1.0,2015-07-04 12:03:00,
2015-07-04 08:08:00,66.2,65.7,27.95,West,276,6.7,7.4,98,0.00,,,0.25,45.15,Weather logger V1.0,2015-07-04 12:08:00,
2015-07-04 08:13:00,66.2,65.7,27.96,SW,232,0.4,2.5,98,0.07,,,0.26,44.04,Weather logger V1.0,2015-07-04 12:13:00,
2015-07-04 08:18:00,66.2,66.0,27.96,SW,227,0.0,0.0,99,0.00,,,0.26,17.46,Weather logger V1.0,2015-07-04 12:18:00,
2015-07-04 08:23:00,66.0,65.8,27.96,SW,233,0.0,0.0,99,0.00,,,0.26,23.36,Weather logger V1.0,2015-07-04 12:23:00,
2015-07-04 08:28:00,66.0,65.8,27.96,SE,142,3.4,4.9,99,0.00,,,0.26,25.13,Weather logger V1.0,2015-07-04 12:28:00,
2015-07-04 08:33:00,65.8,65.7,27.96,SW,222,0.0,0.0,99,0.00,,,0.26,20.55,Weather logger V1.0,2015-07-04 12:33:00,
2015-07-04 08:38:00,65.8,65.7,27.96,SW,227,1.1,2.5,99,0.00,,,0.26,36.75,Weather logger V1.0,2015-07-04 12:38:00,
2015-07-04 08:43:00,65.8,65.7,27.96,SSW,200,1.1,2.5,99,0.00,,,0.26,44.17,Weather logger V1.0,2015-07-04 12:43:00,
2015-07-04 08:48:00,65.8,65.3,27.97,WSW,245,0.4,2.5,98,0.00,,,0.26,48.49,Weather logger V1.0,2015-07-04 12:48:00,
2015-07-04 08:54:00,65.8,65.7,27.96,SSW,202,0.9,2.5,99,0.00,,,0.26,79.49,Weather logger V1.0,2015-07-04 12:54:00,
2015-07-04 08:59:00,66.0,65.8,27.96,SW,219,2.0,2.5,99,0.00,,,0.26,65.95,Weather logger V1.0,2015-07-04 12:59:00,
2015-07-04 09:04:00,66.0,65.8,27.96,SW,220,0.2,2.5,99,0.00,,,0.26,69.39,Weather logger V1.0,2015-07-04 13:04:00,
2015-07-04 09:09:00,66.2,66.0,27.97,SW,231,0.0,0.0,99,0.00,,,0.26,60.46,Weather logger V1.0,2015-07-04 13:09:00,
2015-07-04 09:14:00,66.4,66.2,27.97,SW,220,0.0,0.0,99,0.00,,,0.26,56.35,Weather logger V1.0,2015-07-04 13:14:00,
2015-07-04 09:19:00,66.4,66.2,27.97,SW,228,1.1,2.5,99,0.00,,,0.26,46.03,Weather logger V1.0,2015-07-04 13:19:00,
2015-07-04 09:24:00,66.6,66.4,27.98,SSW,208,0.4,2.5,99,0.00,,,0.26,53.73,Weather logger V1.0,2015-07-04 13:24:00,
2015-07-04 09:29:00,66.6,66.4,27.98,SW,231,0.0,0.0,99,0.00,,,0.26,68.51,Weather logger V1.0,2015-07-04 13:29:00,
2015-07-04 09:34:00,66.7,66.6,27.98,WSW,243,0.9,2.5,99,0.00,,,0.26,102.15,Weather logger V1.0,2015-07-04 13:34:00,
2015-07-04 09:39:00,66.7,66.6,27.97,SW,223,0.0,0.0,99,0.00,,,0.26,99.60,Weather logger V1.0,2015-07-04 13:39:00,
2015-07-04 09:44:00,66.9,66.7,27.98,WSW,252,0.4,2.5,99,0.00,,,0.26,98.43,Weather logger V1.0,2015-07-04 13:44:00,
2015-07-04 09:49:00,67.1,66.9,27.98,SW,232,0.0,0.0,99,0.00,,,0.26,91.28,Weather logger V1.0,2015-07-04 13:49:00,
2015-07-04 09:54:00,67.3,67.1,27.98,SSW,206,0.9,2.5,99,0.00,,,0.26,93.09,Weather logger V1.0,2015-07-04 13:54:00,
2015-07-04 09:59:00,67.5,67.3,27.98,SSW,194,0.0,0.0,99,0.00,,,0.26,71.13,Weather logger V1.0,2015-07-04 13:59:00,
2015-07-04 10:04:00,67.5,66.9,27.98,SW,218,0.0,0.0,98,0.00,,,0.26,110.54,Weather logger V1.0,2015-07-04 14:04:00,
2015-07-04 10:15:00,67.6,66.7,27.99,SSW,196,0.0,0.0,97,0.00,,,0.26,95.52,Weather logger V1.0,2015-07-04 14:15:00,
2015-07-04 10:20:00,67.8,66.9,27.99,SW,233,0.4,2.5,97,0.00,,,0.26,85.12,Weather logger V1.0,2015-07-04 14:20:00,
2015-07-04 10:25:00,67.8,66.9,27.99,SW,216,0.0,0.0,97,0.00,,,0.26,88.91,Weather logger V1.0,2015-07-04 14:25:00,
2015-07-04 10:30:00,68.0,67.1,27.99,WSW,238,1.1,2.5,97,0.00,,,0.26,66.58,Weather logger V1.0,2015-07-04 14:30:00,
2015-07-04 10:35:00,68.0,67.5,27.99,WSW,249,2.7,4.9,98,0.00,,,0.26,48.02,Weather logger V1.0,2015-07-04 14:35:00,
2015-07-04 10:40:00,67.8,67.3,27.99,SSW,193,1.3,2.5,98,0.00,,,0.26,44.74,Weather logger V1.0,2015-07-04 14:40:00,
2015-07-04 10:45:00,67.8,67.3,28.00,SSW,212,0.0,0.0,98,0.00,,,0.26,46.57,Weather logger V1.0,2015-07-04 14:45:00,
2015-07-04 10:50:00,67.6,66.7,27.99,SW,228,0.0,0.0,97,0.00,,,0.26,87.56,Weather logger V1.0,2015-07-04 14:50:00,
2015-07-04 10:55:00,67.6,66.7,28.00,SW,219,0.0,0.0,97,0.07,,,0.27,95.98,Weather logger V1.0,2015-07-04 14:55:00,
2015-07-04 11:00:00,67.6,66.7,28.00,SW,222,0.0,0.0,97,0.07,,,0.27,61.88,Weather logger V1.0,2015-07-04 15:00:00,
2015-07-04 11:05:00,67.8,66.9,28.00,SW,220,0.0,0.0,97,0.00,,,0.27,49.94,Weather logger V1.0,2015-07-04 15:05:00,
2015-07-04 11:10:00,67.8,67.3,28.00,SW,223,0.0,0.0,98,0.00,,,0.27,80.00,Weather logger V1.0,2015-07-04 15:10:00,
2015-07-04 11:15:00,67.8,66.9,28.00,SW,218,0.0,0.0,97,0.07,,,0.28,95.61,Weather logger V1.0,2015-07-04 15:15:00,
2015-07-04 11:20:00,68.0,67.1,28.00,SW,233,0.2,2.5,97,0.07,,,0.28,48.08,Weather logger V1.0,2015-07-04 15:20:00,
2015-07-04 11:26:00,68.0,67.1,28.01,WSW,246,0.9,2.5,97,0.00,,,0.28,81.23,Weather logger V1.0,2015-07-04 15:26:00,
2015-07-04 11:31:00,68.0,67.1,28.01,SSW,196,1.8,2.5,97,0.07,,,0.30,47.86,Weather logger V1.0,2015-07-04 15:31:00,
2015-07-04 11:36:00,68.0,67.1,28.00,SW,236,0.9,2.5,97,0.07,,,0.30,72.68,Weather logger V1.0,2015-07-04 15:36:00,
2015-07-04 11:46:00,68.0,66.9,28.00,SE,145,2.0,4.9,96,0.00,,,0.30,113.16,Weather logger V1.0,2015-07-04 15:46:00,
2015-07-04 11:51:00,68.0,66.9,28.00,SW,222,0.2,2.5,96,0.00,,,0.30,128.15,Weather logger V1.0,2015-07-04 15:51:00,
2015-07-04 11:56:00,68.2,67.1,28.01,SW,220,0.0,0.0,96,0.00,,,0.30,132.04,Weather logger V1.0,2015-07-04 15:56:00,
2015-07-04 12:01:00,68.2,67.1,28.00,SW,228,0.0,0.0,96,0.00,,,0.30,137.01,Weather logger V1.0,2015-07-04 16:01:00,
2015-07-04 12:06:00,68.4,67.3,28.00,SSW,201,0.2,2.5,96,0.00,,,0.30,129.87,Weather logger V1.0,2015-07-04 16:06:00,
2015-07-04 12:11:00,68.5,67.5,28.00,SSW,211,0.0,0.0,96,0.00,,,0.30,118.69,Weather logger V1.0,2015-07-04 16:11:00,
2015-07-04 12:16:00,68.7,67.3,28.00,SW,220,0.0,0.0,95,0.00,,,0.30,114.36,Weather logger V1.0,2015-07-04 16:16:00,
2015-07-04 12:21:00,68.9,67.5,27.99,SW,231,0.0,0.0,95,0.00,,,0.30,138.70,Weather logger V1.0,2015-07-04 16:21:00,
2015-07-04 12:26:00,68.9,67.5,27.99,SW,234,0.0,0.0,95,0.00,,,0.30,129.82,Weather logger V1.0,2015-07-04 16:26:00,
2015-07-04 12:31:00,69.1,67.3,28.00,SW,223,0.0,0.0,94,0.00,,,0.30,144.57,Weather logger V1.0,2015-07-04 16:31:00,
2015-07-04 12:36:00,69.4,67.6,28.00,WSW,239,0.0,0.0,94,0.00,,,0.30,151.01,Weather logger V1.0,2015-07-04 16:36:00,
2015-07-04 12:42:00,69.8,68.0,28.00,SW,223,0.0,0.0,94,0.00,,,0.30,144.13,Weather logger V1.0,2015-07-04 16:42:00,
2015-07-04 12:47:00,70.2,68.4,28.00,WSW,244,0.0,0.0,94,0.00,,,0.30,81.91,Weather logger V1.0,2015-07-04 16:47:00,
2015-07-04 12:52:00,70.5,68.7,28.00,SW,217,0.0,0.0,94,0.00,,,0.30,169.19,Weather logger V1.0,2015-07-04 16:52:00,
2015-07-04 12:57:00,70.9,68.7,28.01,SE,134,2.0,2.5,93,0.00,,,0.30,348.04,Weather logger V1.0,2015-07-04 16:57:00,
2015-07-04 13:02:00,71.2,68.9,28.00,WSW,237,0.4,2.5,92,0.00,,,0.30,230.55,Weather logger V1.0,2015-07-04 17:02:00,
2015-07-04 13:07:00,71.4,68.7,28.00,SW,218,0.0,0.0,91,0.00,,,0.30,246.63,Weather logger V1.0,2015-07-04 17:07:00,
2015-07-04 13:12:00,71.8,68.7,28.00,SW,227,0.0,0.0,90,0.00,,,0.30,295.39,Weather logger V1.0,2015-07-04 17:12:00,
2015-07-04 13:17:00,72.0,68.9,28.00,SSW,197,2.5,4.9,90,0.00,,,0.30,310.14,Weather logger V1.0,2015-07-04 17:17:00,
2015-07-04 13:22:00,72.3,70.0,27.99,SW,229,0.2,2.5,92,0.00,,,0.30,539.33,Weather logger V1.0,2015-07-04 17:22:00,
2015-07-04 13:27:00,72.7,69.3,27.99,SW,225,0.0,0.0,89,0.00,,,0.30,215.09,Weather logger V1.0,2015-07-04 17:27:00,
2015-07-04 13:32:00,72.7,68.9,27.99,SSW,197,1.3,2.5,88,0.00,,,0.30,306.72,Weather logger V1.0,2015-07-04 17:32:00,
2015-07-04 13:37:00,72.9,69.4,27.99,SW,227,0.2,2.5,89,0.00,,,0.30,795.65,Weather logger V1.0,2015-07-04 17:37:00,
2015-07-04 13:42:00,73.0,68.0,27.99,SSE,154,0.9,2.5,84,0.00,,,0.30,495.19,Weather logger V1.0,2015-07-04 17:42:00,
2015-07-04 13:47:00,73.4,68.7,27.99,SSE,157,1.1,2.5,85,0.00,,,0.30,676.73,Weather logger V1.0,2015-07-04 17:47:00,
2015-07-04 13:52:00,73.9,67.8,27.99,South,178,2.0,2.5,81,0.00,,,0.30,663.69,Weather logger V1.0,2015-07-04 17:52:00,
2015-07-04 13:58:00,74.3,67.8,27.99,SSW,194,1.8,2.5,80,0.00,,,0.30,277.01,Weather logger V1.0,2015-07-04 17:58:00,
2015-07-04 14:03:00,74.7,68.5,27.98,WSW,251,0.9,2.5,81,0.00,,,0.30,455.43,Weather logger V1.0,2015-07-04 18:03:00,
2015-07-04 14:08:00,75.0,68.5,27.98,West,277,3.4,4.9,80,0.00,,,0.30,321.98,Weather logger V1.0,2015-07-04 18:08:00,
2015-07-04 14:13:00,74.8,69.4,27.98,SW,229,0.0,0.0,83,0.00,,,0.30,573.90,Weather logger V1.0,2015-07-04 18:13:00,
2015-07-04 14:18:00,74.7,68.5,27.98,SW,225,2.0,4.9,81,0.00,,,0.30,687.94,Weather logger V1.0,2015-07-04 18:18:00,
2015-07-04 14:23:00,74.5,68.4,27.98,North,3,4.0,7.4,81,0.00,,,0.30,595.70,Weather logger V1.0,2015-07-04 18:23:00,
2015-07-04 14:28:00,74.3,68.5,27.98,SSE,166,0.9,2.5,82,0.00,,,0.30,277.92,Weather logger V1.0,2015-07-04 18:28:00,
2015-07-04 14:33:00,73.9,68.5,27.97,SW,231,0.0,0.0,83,0.00,,,0.30,308.94,Weather logger V1.0,2015-07-04 18:33:00,
2015-07-04 14:38:00,73.8,68.4,27.98,WSW,247,0.4,2.5,83,0.00,,,0.30,220.22,Weather logger V1.0,2015-07-04 18:38:00,
2015-07-04 14:43:00,73.6,68.5,27.98,WSW,240,0.0,0.0,84,0.00,,,0.30,219.39,Weather logger V1.0,2015-07-04 18:43:00,
2015-07-04 14:48:00,73.6,68.2,27.97,SW,226,0.0,0.0,83,0.00,,,0.30,198.94,Weather logger V1.0,2015-07-04 18:48:00,
2015-07-04 14:53:00,73.2,68.2,27.98,SW,231,0.0,0.0,84,0.00,,,0.30,317.43,Weather logger V1.0,2015-07-04 18:53:00,
2015-07-04 14:58:00,73.6,67.5,27.97,SW,232,0.0,0.0,81,0.00,,,0.30,422.86,Weather logger V1.0,2015-07-04 18:58:00,
2015-07-04 15:03:00,74.1,66.2,27.97,WSW,248,0.0,0.0,76,0.00,,,0.30,434.63,Weather logger V1.0,2015-07-04 19:03:00,
2015-07-04 15:08:00,74.7,66.2,27.97,ESE,123,2.7,4.9,75,0.00,,,0.30,551.83,Weather logger V1.0,2015-07-04 19:08:00,
2015-07-04 15:14:00,75.2,66.7,27.97,SW,235,0.0,0.0,75,0.00,,,0.30,565.85,Weather logger V1.0,2015-07-04 19:14:00,
2015-07-04 15:19:00,75.9,66.4,27.97,SW,220,0.0,0.0,72,0.00,,,0.30,454.74,Weather logger V1.0,2015-07-04 19:19:00,
2015-07-04 15:24:00,76.6,66.6,27.96,WSW,242,0.4,2.5,71,0.00,,,0.30,654.40,Weather logger V1.0,2015-07-04 19:24:00,
2015-07-04 15:29:00,77.0,66.9,27.96,ESE,115,1.3,2.5,71,0.00,,,0.30,575.88,Weather logger V1.0,2015-07-04 19:29:00,
2015-07-04 15:34:00,77.4,66.9,27.96,South,181,1.1,2.5,70,0.00,,,0.30,285.67,Weather logger V1.0,2015-07-04 19:34:00,
2015-07-04 15:39:00,77.5,67.8,27.96,South,190,0.4,2.5,72,0.00,,,0.30,480.85,Weather logger V1.0,2015-07-04 19:39:00,
2015-07-04 15:44:00,77.7,68.9,27.96,SW,225,0.0,0.0,74,0.00,,,0.30,229.40,Weather logger V1.0,2015-07-04 19:44:00,
2015-07-04 15:49:00,77.7,67.6,27.96,SW,230,1.1,2.5,71,0.00,,,0.30,258.27,Weather logger V1.0,2015-07-04 19:49:00,
2015-07-04 15:54:00,77.7,68.0,27.96,SW,231,0.0,0.0,72,0.00,,,0.30,311.78,Weather logger V1.0,2015-07-04 19:54:00,
2015-07-04 15:59:00,77.5,67.8,27.96,SW,232,0.0,0.0,72,0.00,,,0.30,165.98,Weather logger V1.0,2015-07-04 19:59:00,
2015-07-04 16:04:00,77.4,68.0,27.97,SW,236,0.4,2.5,73,0.00,,,0.30,179.76,Weather logger V1.0,2015-07-04 20:04:00,
2015-07-04 16:09:00,77.2,68.7,27.96,SW,218,0.0,0.0,75,0.00,,,0.30,229.87,Weather logger V1.0,2015-07-04 20:09:00,
2015-07-04 16:14:00,77.0,68.2,27.97,SW,229,0.0,0.0,74,0.00,,,0.30,222.40,Weather logger V1.0,2015-07-04 20:14:00,
2015-07-04 16:19:00,77.0,68.5,27.97,SSW,206,0.0,0.0,75,0.00,,,0.30,461.40,Weather logger V1.0,2015-07-04 20:19:00,
2015-07-04 16:24:00,77.0,66.9,27.96,SE,145,2.9,4.9,71,0.00,,,0.30,562.37,Weather logger V1.0,2015-07-04 20:24:00,
2015-07-04 16:30:00,77.0,66.9,27.97,SSE,158,0.9,2.5,71,0.00,,,0.30,190.96,Weather logger V1.0,2015-07-04 20:30:00,
2015-07-04 16:35:00,77.0,67.3,27.97,SW,224,0.0,0.0,72,0.00,,,0.30,263.97,Weather logger V1.0,2015-07-04 20:35:00,
2015-07-04 16:40:00,77.2,67.8,27.97,SW,227,0.0,0.0,73,0.00,,,0.30,268.84,Weather logger V1.0,2015-07-04 20:40:00,
2015-07-04 16:46:00,77.2,67.8,27.97,WSW,240,0.4,2.5,73,0.00,,,0.30,200.46,Weather logger V1.0,2015-07-04 20:46:00,
2015-07-04 16:51:00,77.4,68.0,27.97,SW,218,0.4,2.5,73,0.00,,,0.30,310.29,Weather logger V1.0,2015-07-04 20:51:00,
2015-07-04 16:56:00,77.2,68.7,27.97,SW,222,0.0,0.0,75,0.00,,,0.30,163.56,Weather logger V1.0,2015-07-04 20:56:00,
2015-07-04 17:01:00,77.0,68.9,27.97,SW,233,0.0,0.0,76,0.00,,,0.30,172.59,Weather logger V1.0,2015-07-04 21:01:00,
2015-07-04 17:06:00,77.0,68.5,27.97,West,279,0.0,0.0,75,0.00,,,0.30,145.62,Weather logger V1.0,2015-07-04 21:06:00,
2015-07-04 17:11:00,76.8,68.4,27.97,SW,233,0.0,0.0,75,0.00,,,0.30,115.58,Weather logger V1.0,2015-07-04 21:11:00,
2015-07-04 17:16:00,76.5,69.1,27.97,WSW,237,0.0,0.0,78,0.00,,,0.30,135.96,Weather logger V1.0,2015-07-04 21:16:00,
2015-07-04 17:21:00,76.3,69.3,27.97,SW,231,0.0,0.0,79,0.00,,,0.30,117.22,Weather logger V1.0,2015-07-04 21:21:00,
2015-07-04 17:26:00,76.3,68.9,27.97,WSW,249,1.3,2.5,78,0.00,,,0.30,117.61,Weather logger V1.0,2015-07-04 21:26:00,
2015-07-04 17:31:00,76.1,68.0,27.97,SW,232,0.0,0.0,76,0.00,,,0.30,110.51,Weather logger V1.0,2015-07-04 21:31:00,
2015-07-04 17:36:00,76.3,66.6,27.97,SW,217,0.0,0.0,72,0.00,,,0.30,132.56,Weather logger V1.0,2015-07-04 21:36:00,
2015-07-04 17:42:00,76.3,67.5,27.97,SW,226,0.0,0.0,74,0.00,,,0.30,102.02,Weather logger V1.0,2015-07-04 21:42:00,
2015-07-04 17:47:00,76.5,68.4,27.97,SW,230,0.0,0.0,76,0.00,,,0.30,87.83,Weather logger V1.0,2015-07-04 21:47:00,
2015-07-04 17:52:00,76.6,68.9,27.97,SSW,211,0.0,0.0,77,0.00,,,0.30,108.46,Weather logger V1.0,2015-07-04 21:52:00,
2015-07-04 17:57:00,76.6,70.0,27.97,SSW,204,0.0,0.0,80,0.00,,,0.30,77.82,Weather logger V1.0,2015-07-04 21:57:00,
2015-07-04 18:02:00,76.8,69.4,27.96,SW,217,0.0,0.0,78,0.00,,,0.30,100.95,Weather logger V1.0,2015-07-04 22:02:00,
2015-07-04 18:07:00,76.6,69.3,27.97,SW,225,0.0,0.0,78,0.00,,,0.30,105.18,Weather logger V1.0,2015-07-04 22:07:00,
2015-07-04 18:12:00,76.6,69.3,27.96,SW,233,0.0,0.0,78,0.00,,,0.30,90.40,Weather logger V1.0,2015-07-04 22:12:00,
2015-07-04 18:17:00,76.6,68.9,27.97,SW,230,0.0,0.0,77,0.00,,,0.30,39.18,Weather logger V1.0,2015-07-04 22:17:00,
2015-07-04 18:22:00,76.6,68.9,27.96,SSW,212,0.0,0.0,77,0.00,,,0.30,50.48,Weather logger V1.0,2015-07-04 22:22:00,
2015-07-04 18:27:00,76.5,69.1,27.96,SW,231,0.0,0.0,78,0.00,,,0.30,81.08,Weather logger V1.0,2015-07-04 22:27:00,
2015-07-04 18:32:00,76.3,69.3,27.97,SW,222,0.0,0.0,79,0.00,,,0.30,67.37,Weather logger V1.0,2015-07-04 22:32:00,
2015-07-04 18:37:00,76.1,70.0,27.96,SSW,193,0.0,0.0,81,0.00,,,0.30,92.55,Weather logger V1.0,2015-07-04 22:37:00,
2015-07-04 18:42:00,76.1,69.1,27.96,SW,228,0.0,0.0,79,0.00,,,0.30,52.79,Weather logger V1.0,2015-07-04 22:42:00,
2015-07-04 18:47:00,75.9,68.9,27.96,WSW,244,0.0,0.0,79,0.00,,,0.30,62.64,Weather logger V1.0,2015-07-04 22:47:00,
2015-07-04 18:52:00,75.7,70.9,27.96,WSW,239,0.0,0.0,85,0.00,,,0.30,29.20,Weather logger V1.0,2015-07-04 22:52:00,
2015-07-04 18:58:00,75.6,70.5,27.96,WSW,238,0.0,0.0,84,0.00,,,0.30,23.05,Weather logger V1.0,2015-07-04 22:58:00,
2015-07-04 19:03:00,75.4,70.9,27.96,SSW,211,0.0,0.0,86,0.00,,,0.30,19.83,Weather logger V1.0,2015-07-04 23:03:00,
2015-07-04 19:08:00,75.0,70.5,27.96,SW,223,0.0,0.0,86,0.00,,,0.30,25.19,Weather logger V1.0,2015-07-04 23:08:00,
2015-07-04 19:13:00,74.8,71.1,27.96,SW,223,0.0,0.0,88,0.00,,,0.30,30.24,Weather logger V1.0,2015-07-04 23:13:00,
2015-07-04 19:18:00,74.5,71.4,27.96,SW,223,0.0,0.0,90,0.00,,,0.30,34.76,Weather logger V1.0,2015-07-04 23:18:00,
2015-07-04 19:23:00,74.1,70.7,27.96,SW,220,0.0,0.0,89,0.00,,,0.30,36.43,Weather logger V1.0,2015-07-04 23:23:00,
2015-07-04 19:28:00,74.1,70.7,27.96,SW,229,0.0,0.0,89,0.00,,,0.30,30.97,Weather logger V1.0,2015-07-04 23:28:00,
2015-07-04 19:33:00,73.9,70.9,27.96,SW,229,0.0,0.0,90,0.00,,,0.30,26.99,Weather logger V1.0,2015-07-04 23:33:00,
2015-07-04 19:38:00,73.9,70.2,27.95,SW,231,0.0,0.0,88,0.00,,,0.30,24.09,Weather logger V1.0,2015-07-04 23:38:00,
2015-07-04 19:43:00,73.9,70.9,27.96,SW,231,0.0,0.0,90,0.00,,,0.30,22.64,Weather logger V1.0,2015-07-04 23:43:00,
2015-07-04 19:48:00,73.9,70.9,27.95,SW,231,0.0,0.0,90,0.00,,,0.30,21.50,Weather logger V1.0,2015-07-04 23:48:00,
2015-07-04 19:53:00,73.8,70.7,27.96,SW,217,0.0,0.0,90,0.00,,,0.30,19.64,Weather logger V1.0,2015-07-04 23:53:00,
2015-07-04 19:58:00,73.8,71.4,27.96,SW,217,0.0,0.0,92,0.00,,,0.30,18.63,Weather logger V1.0,2015-07-04 23:58:00,
2015-07-04 20:03:00,73.8,71.4,27.96,SW,218,0.0,0.0,92,0.00,,,0.30,18.44,Weather logger V1.0,2015-07-05 00:03:00,
2015-07-04 20:08:00,73.6,71.2,27.96,SW,218,0.0,0.0,92,0.00,,,0.30,16.16,Weather logger V1.0,2015-07-05 00:08:00,
2015-07-04 20:14:00,73.4,70.7,27.96,SW,222,0.0,0.0,91,0.00,,,0.30,11.05,Weather logger V1.0,2015-07-05 00:14:00,
2015-07-04 20:19:00,73.4,71.1,27.96,SW,222,0.0,0.0,92,0.00,,,0.30,7.53,Weather logger V1.0,2015-07-05 00:19:00,
2015-07-04 20:24:00,73.2,70.2,27.96,SW,222,0.0,0.0,90,0.00,,,0.30,6.22,Weather logger V1.0,2015-07-05 00:24:00,
2015-07-04 20:29:00,73.2,70.5,27.96,SW,222,0.0,0.0,91,0.00,,,0.30,4.85,Weather logger V1.0,2015-07-05 00:29:00,
2015-07-04 20:34:00,73.0,70.3,27.96,SW,222,0.0,0.0,91,0.00,,,0.30,3.87,Weather logger V1.0,2015-07-05 00:34:00,
2015-07-04 20:39:00,72.9,70.2,27.96,SW,222,0.0,0.0,91,0.00,,,0.30,2.01,Weather logger V1.0,2015-07-05 00:39:00,
2015-07-04 20:44:00,72.7,70.0,27.97,SW,222,0.0,0.0,91,0.00,,,0.30,0.00,Weather logger V1.0,2015-07-05 00:44:00,
2015-07-04 20:49:00,72.5,70.2,27.97,SW,222,0.0,0.0,92,0.00,,,0.30,0.00,Weather logger V1.0,2015-07-05 00:49:00,
2015-07-04 20:54:00,72.3,70.0,27.97,SW,222,0.0,0.0,92,0.00,,,0.30,0.00,Weather logger V1.0,2015-07-05 00:54:00,
2015-07-04 20:59:00,72.3,70.0,27.98,SW,222,0.0,0.0,92,0.00,,,0.30,0.00,Weather logger V1.0,2015-07-05 00:59:00,
2015-07-04 21:04:00,72.1,70.0,27.98,SW,222,0.0,0.0,93,0.00,,,0.30,0.00,Weather logger V1.0,2015-07-05 01:04:00,
2015-07-04 21:09:00,72.1,70.0,27.98,SW,222,0.0,0.0,93,0.00,,,0.30,0.00,Weather logger V1.0,2015-07-05 01:09:00,
2015-07-04 21:14:00,72.0,69.8,27.98,SW,222,0.0,0.0,93,0.00,,,0.30,0.00,Weather logger V1.0,2015-07-05 01:14:00,
2015-07-04 21:19:00,72.0,69.8,27.98,SW,222,0.0,0.0,93,0.00,,,0.30,0.00,Weather logger V1.0,2015-07-05 01:19:00,
2015-07-04 21:24:00,71.8,70.0,27.98,SW,222,0.0,0.0,94,0.00,,,0.30,0.00,Weather logger V1.0,2015-07-05 01:24:00,
2015-07-04 21:30:00,71.8,70.0,27.98,SW,222,0.0,0.0,94,0.00,,,0.30,0.00,Weather logger V1.0,2015-07-05 01:30:00,
2015-07-04 21:35:00,71.8,70.3,27.98,SW,222,0.0,0.0,95,0.00,,,0.30,0.00,Weather logger V1.0,2015-07-05 01:35:00,
2015-07-04 21:40:00,71.6,70.2,27.98,SW,222,0.0,0.0,95,0.00,,,0.30,0.00,Weather logger V1.0,2015-07-05 01:40:00,
2015-07-04 21:45:00,71.6,70.5,27.98,SW,222,0.0,0.0,96,0.00,,,0.30,0.00,Weather logger V1.0,2015-07-05 01:45:00,
2015-07-04 21:50:00,71.4,70.3,27.98,SW,222,0.0,0.0,96,0.00,,,0.30,0.00,Weather logger V1.0,2015-07-05 01:50:00,
2015-07-04 21:55:00,71.4,70.3,27.97,SW,222,0.0,0.0,96,0.00,,,0.30,0.00,Weather logger V1.0,2015-07-05 01:55:00,
2015-07-04 22:00:00,71.4,70.3,27.97,SW,222,0.0,0.0,96,0.00,,,0.30,0.00,Weather logger V1.0,2015-07-05 02:00:00,
2015-07-04 22:05:00,71.2,70.2,27.97,SW,222,0.0,0.0,96,0.00,,,0.30,0.00,Weather logger V1.0,2015-07-05 02:05:00,
2015-07-04 22:10:00,71.2,69.8,27.98,SW,222,0.0,0.0,95,0.00,,,0.30,0.00,Weather logger V1.0,2015-07-05 02:10:00,
2015-07-04 22:15:00,70.9,69.8,27.97,SW,222,0.0,0.0,96,0.00,,,0.30,0.00,Weather logger V1.0,2015-07-05 02:15:00,
2015-07-04 22:20:00,70.7,69.6,27.97,SW,222,0.0,0.0,96,0.00,,,0.30,0.00,Weather logger V1.0,2015-07-05 02:20:00,
2015-07-04 22:25:00,70.3,69.4,27.98,SW,222,0.0,0.0,97,0.00,,,0.30,0.00,Weather logger V1.0,2015-07-05 02:25:00,
2015-07-04 22:30:00,70.2,69.3,27.98,SW,222,0.0,0.0,97,0.00,,,0.30,0.00,Weather logger V1.0,2015-07-05 02:30:00,
2015-07-04 22:35:00,69.8,68.9,27.97,SW,222,0.0,0.0,97,0.00,,,0.30,0.00,Weather logger V1.0,2015-07-05 02:35:00,
2015-07-04 22:40:00,69.6,68.7,27.98,SW,222,0.0,0.0,97,0.00,,,0.30,0.00,Weather logger V1.0,2015-07-05 02:40:00,
2015-07-04 22:46:00,69.6,68.7,27.98,SW,222,0.0,0.0,97,0.00,,,0.30,0.00,Weather logger V1.0,2015-07-05 02:46:00,
2015-07-04 22:51:00,69.4,68.5,27.98,SW,222,0.0,0.0,97,0.00,,,0.30,0.00,Weather logger V1.0,2015-07-05 02:51:00,
2015-07-04 22:56:00,69.4,68.5,27.98,SW,222,0.0,0.0,97,0.00,,,0.30,0.00,Weather logger V1.0,2015-07-05 02:56:00,
2015-07-04 23:01:00,69.4,68.5,27.98,SW,222,0.0,0.0,97,0.00,,,0.30,0.00,Weather logger V1.0,2015-07-05 03:01:00,